Regional Weather Roundup
Issued by NWS

Home | Current Version | Previous Version | Text Only | Print | Product List | Glossary On
Versions: 1 2 3 4 5 6 7 8 9 10 11 12 13 14 15 16 17 18 19 20 21 22 23 24 25 26 27 28 29 30 31 32 33 34 35 36 37 38 39 40 41 42 43 44 45 46 47 48 49 50
000
ASUS42 KFFC 071603
RWRGA
WEATHER ROUNDUP FOR GEORGIA
NATIONAL WEATHER SERVICE PEACHTREE CITY GA
1200 PM EDT TUE JUL 07 2015

NOTE: "FAIR" INDICATES FEW OR NO CLOUDS BELOW 12,000 FEET WITH NO
SIGNIFICANT WEATHER AND/OR OBSTRUCTIONS TO VISIBILITY.

* = USE WITH CAUTION. THE STATIONS MARKED WITH AN ASTERISK MAY NOT
REPORT WEATHER SUCH AS PRECIPITATION, FOG, OR THUNDER AND ARE NOT
QUALITY CONTROLLED BY NWS.

THE REMARK "TC" DENOTES TEMPERATURE READING IN DEGREES CELSIUS.

GAZ001>058-071700-
NORTH GEORGIA

CITY           SKY/WX    TMP DP  RH WIND       PRES   REMARKS
ATLANTA        MOSUNNY   84  70  62 W7        30.19S
ATHENS         MOSUNNY   88  69  53 VRB5      30.18R HX  92
CHAMBLEE       PTSUNNY   85  72  65 W7        30.19S HX  91
PEACHTREE CITY MOSUNNY   85  71  63 VRB5      30.19S HX  90
ROME           MOSUNNY   85  73  67 SW9       30.15S HX  91
WEST ATLANTA   MOSUNNY   85  70  60 VRB7      30.18S
GAINESVILLE    PTSUNNY   81  69  67 W6        30.22R
CARTERSVILLE   MOSUNNY   84  71  65 S6        30.17F


CITY           SKY/WX    TMP DP  RH WIND       PRES   REMARKS
DALTON*        MOSUNNY   81  73  78 E3        30.17S
LAWRENCEVILLE* PTSUNNY   82  66  57 W7        30.17F
MARIETTA       MOSUNNY   83  72  69 W5        30.19S
KENNESAW*      PTSUNNY  N/A N/A N/A SW7       30.20S
BLAIRSVILLE*     N/A     80  51  35 W5        30.23S
$$

GAZ059>098-102>109-071700-
CENTRAL GEORGIA

CITY           SKY/WX    TMP DP  RH WIND       PRES   REMARKS
AUGUSTA-BUSH   MOSUNNY   88  71  57 S7        30.14S HX  94
AUGUSTA-DANIEL MOSUNNY   87  71  58 SW6       30.17R HX  93
COLUMBUS       PTSUNNY   84  70  62 NW6       30.18S
MACON          MOSUNNY   87  70  56 S6        30.17F HX  92
ROBINS AFB     DRIZZLE   87  71  59 SW6       30.17S HX  93


CITY           SKY/WX    TMP DP  RH WIND       PRES   REMARKS
LAGRANGE*      MOSUNNY   88  79  74 W6        30.19S HX 102
SYLVANIA*      MOSUNNY   89  74  62 SW5       30.17F HX  98
MILLEDGEVILLE* MOSUNNY   86  70  58 CALM      30.17F HX  90
$$

GAZ099>101-110>166-071700-
SOUTH GEORGIA

CITY           SKY/WX    TMP DP  RH WIND       PRES   REMARKS
SAVANNAH       PTSUNNY   88  69  53 S6        30.16S HX  92
VALDOSTA       MOSUNNY   86  70  58 CALM      30.18F HX  90
ALMA           MOSUNNY   85  70  60 W5        30.18S
ST SIMONS      SUNNY     84  74  71 SE9       30.18R HX  91
FT STEWART     MOSUNNY   87  70  56 SW3       30.15S HX  92
ALBANY         PTSUNNY   86  72  62 W7        30.20S HX  92
HUNTER AFB     MOSUNNY   88  74  63 SW7       30.14S HX  96
MOODY AFB      PTSUNNY   86  71  60 VRB6      30.18S HX  91
BRUNSWICK      MOSUNNY   90  72  55 SW5       30.18S HX  96


CITY           SKY/WX    TMP DP  RH WIND       PRES   REMARKS
BAINBRIDGE*    MOSUNNY   90  73  58 W5        30.19S HX  98
MOULTRIE*      PTSUNNY   84  72  65 CALM      30.20S
VIDALIA*       PTSUNNY   86  70  58 SW5       30.18S HAZE    HX  90
WAYCROSS*      PTSUNNY   88  76  68 N3        30.18S HX  98
DOUGLAS*       SUNNY     86  70  58 CALM      30.20S HX  90
$$



USA.gov is the U.S. government's official web portal to all federal, state and local government web resources and services.